Location: Spondin
(51.8528°N, 111.6118°W)
Time: 16:55:09
(UTC+00:00)

Vanguard 2 Rocket - Pass Details

Date: 02 June 2022
Orbit: 553 x 3323 km, 32.9° (Epoch: 02 July)

Event Time Altitude Azimuth Distance (km) Brightness Sun altitude
Rises 01:38:27 0° 271° (W) 6,754 12.9 15.2°
Reaches altitude 10° 01:49:14 10° 239° (WSW) 4,903 11.3 13.6°
Maximum altitude 01:51:07 10° 231° (SW) 4,691 11.1 13.3°
Drops below altitude 10° 01:52:54 10° 223° (SW) 4,546 10.8 13.1°
Sets 02:00:30 0° 187° (S) 4,700 10.4 12.0°
